Regional Weather Roundup
Issued by NWS

Home | Current Version | Previous Version | Text Only | Print | Product List | Glossary On
Versions: 1 2 3 4 5 6 7 8 9 10 11 12 13 14 15 16 17 18 19 20 21 22 23 24 25 26 27 28 29 30 31 32 33 34 35 36 37 38 39 40 41 42 43 44 45 46 47 48 49 50
000
ASUS45 KBOI 220510
RWRID
WEATHER ROUNDUP FOR IDAHO
NATIONAL WEATHER SERVICE BOISE ID
1100 PM MDT SUN SEP 21 2014

NOTE: "FAIR" INDICATES FEW OR NO CLOUDS BELOW 12000 FEET
WITH NO SIGNIFICANT WEATHER AND/OR OBSTRUCTIONS TO VISIBILITY

IDZ012-014-220600-
SOUTHWEST IDAHO


CITY           SKY/WX    TMP DP  RH WIND       PRES   REMARKS
BOISE          CLOUDY    69  50  50 E10       30.03S
CALDWELL       CLOUDY    66  50  55 SE17      30.03F
MOUNTAIN HOME  CLOUDY    62  61  99 SE6       30.05S
$$

IDZ016-017-220600-
SOUTHCENTRAL IDAHO


CITY           SKY/WX    TMP DP  RH WIND       PRES   REMARKS
BURLEY         FOG       54  53  97 CALM      30.10S VSB 3/4
JEROME         MOCLDY    57  53  86 NE10      30.11R
TWIN FALLS     LGT RAIN  59  55  87 SE7       30.11R
$$

IDZ019>023-220600-
SOUTHEAST IDAHO


CITY           SKY/WX    TMP DP  RH WIND       PRES   REMARKS
IDAHO FALLS    LGT RAIN  59  56  89 SW3       30.18R
POCATELLO      CLEAR     56  55  97 E5        30.15F
REXBURG        LGT RAIN  58  55  90 W5        30.19R
$$

IDZ006-010-011-018-031-032-220600-
CENTRAL IDAHO MOUNTAINS


CITY           SKY/WX    TMP DP  RH WIND       PRES   REMARKS
MCCALL         CLOUDY    59  42  53 NE3       30.10S
HAILEY         LGT RAIN  57  55  94 NW6       30.17F
STANLEY          N/A     58  41  53 S5        30.17F
SALMON         MOCLDY    61  46  59 CALM      30.00S
CHALLIS        MOCLDY    67  45  45 SE5       30.08S
$$

IDZ002-004-006-007-026-220600-
NORTHERN IDAHO


CITY           SKY/WX    TMP DP  RH WIND       PRES   REMARKS
LEWISTON       MOCLDY    77  41  27 SW6       29.85R
LOWELL           N/A     62  56  80 N6        29.90R
COEUR D`ALENE  PTCLDY    63  50  63 CALM      29.91R
MULLAN PASS    MOCLDY    65  38  36 NW5       30.13
$$



USA.gov is the U.S. government's official web portal to all federal, state and local government web resources and services.